Location: Newark
(45.4422°N, 16.2769°E)
Time: 12:20:50
(UTC+00:00)

Tiros 1 despin weight - Pass Details

Date: 17 December 2019
Orbit: 594 x 642 km, 48.2° (Epoch: 24 January)

Event Time Altitude Azimuth Distance (km) Brightness Sun altitude
Rises 03:22:51 0° 265° (W) 2,899 - -31.5°
Reaches altitude 10° 03:25:12 10° 268° (W) 1,985 - -31.1°
Maximum altitude 03:29:44 66° 351° (N) 672 - -30.3°
Exits shadow 03:31:35 34° 62° (ENE) 1,018 ? -30.0°
Drops below altitude 10° 03:34:12 10° 74° (ENE) 1,956 ? -29.6°
Sets 03:36:30 0° 77° (ENE) 2,853 ? -29.2°
